WB4FAY-4 Weather Reports


time (UTC)temp
F
wind
direction
speed
knots
gust
knots
rain 1hr
in
rain 24hr
in
rain mn
in
humidity
%
barometer
mb
20200218225617 65 332 3.5 6.1 0.00 0.00 0.00 96 1016.7
20200218224117 66 0 0.0 0.0 0.00 0.00 0.00 96 1016.4
20200218223117 66 0 0.0 0.0 0.00 0.00 0.00 96 1016.1
20200218222617 66 0 0.0 0.0 0.00 0.00 0.00 96 1016.1
20200218222116 66 0 0.0 0.0 0.00 0.00 0.00 96 1016.2
20200218221617 66 0 0.0 0.0 0.00 0.00 0.00 96 1016.0
20200218221116 66 0 0.0 0.0 0.00 0.00 0.00 96 1015.9
20200218220617 66 0 0.0 0.0 0.00 0.00 0.00 96 1015.9
20200218220117 66 0 0.0 0.0 0.00 0.00 0.00 96 1015.8
20200218215617 66 0 0.0 0.0 0.00 0.00 0.00 96 1015.9
20200218214617 66 0 0.0 0.0 0.00 0.00 0.00 96 1016.0
20200218213617 65 0 0.0 0.0 0.00 0.00 0.00 96 1015.7
20200218213117 65 0 0.0 0.0 0.00 0.00 0.00 96 1015.8
20200218212617 65 0 0.0 0.0 0.00 0.00 0.00 96 1015.8
20200218211618 65 192 0.0 0.9 0.00 0.00 0.00 96 1015.9
20200218211117 64 0 0.0 0.0 0.00 0.00 0.00 96 1015.9
20200218205617 65 0 0.0 0.0 0.00 0.00 0.00 96 1015.8
20200218204617 65 0 0.0 0.0 0.00 0.00 0.00 96 1015.9
20200218204116 65 0 0.0 0.0 0.00 0.00 0.00 96 1016.0
20200218203617 65 0 0.0 0.0 0.00 0.00 0.00 96 1016.0
20200218203117 65 0 0.0 0.0 0.00 0.00 0.00 96 1016.1
20200218202617 65 0 0.0 0.0 0.00 0.00 0.00 96 1016.1
20200218202117 65 0 0.0 0.0 0.00 0.00 0.00 96 1016.0
20200218201616 64 0 0.0 0.0 0.00 0.00 0.00 96 1016.2
20200218201117 64 0 0.0 0.0 0.00 0.00 0.00 96 1016.3
20200218200617 64 0 0.0 0.0 0.00 0.00 0.00 96 1016.2
20200218200117 64 0 0.0 0.0 0.00 0.00 0.00 96 1016.2
20200218195617 64 0 0.0 0.0 0.00 0.00 0.00 96 1016.3
20200218195117 64 0 0.0 0.0 0.00 0.00 0.00 96 1016.4
20200218194617 64 0 0.0 0.0 0.00 0.00 0.00 96 1016.5
20200218194117 64 0 0.0 0.0 0.00 0.00 0.00 96 1016.6
20200218192617 64 0 0.0 0.0 0.00 0.00 0.00 96 1016.8
20200218191617 64 246 0.0 0.9 0.00 0.00 0.00 96 1016.9
20200218191117 64 239 0.0 2.6 0.00 0.00 0.00 96 1016.9
20200218190617 64 193 0.0 5.2 0.00 0.00 0.00 96 1016.8
20200218185617 64 230 0.0 2.6 0.00 0.00 0.00 96 1016.8
20200218185117 64 257 0.0 4.3 0.00 0.00 0.00 96 1016.9
20200218184617 64 220 0.0 5.2 0.00 0.00 0.00 96 1017.0
20200218184117 64 191 4.3 0.9 0.00 0.00 0.00 96 1016.9
20200218183617 64 203 0.0 4.3 0.00 0.00 0.00 96 1017.0
20200218183117 64 212 3.5 4.3 0.00 0.00 0.00 96 1017.0
20200218182617 63 250 0.0 3.5 0.00 0.00 0.00 96 1017.0
20200218182118 63 240 1.7 3.5 0.00 0.00 0.00 96 1017.1
20200218181617 63 196 0.0 4.3 0.00 0.00 0.00 96 1017.2
20200218181117 63 184 0.0 4.3 0.00 0.00 0.00 96 1017.2
20200218180617 63 0 0.0 0.0 0.00 0.00 0.00 96 1017.3
20200218175617 62 0 0.0 0.0 0.00 0.00 0.00 96 1017.5
20200218175117 62 0 0.0 0.0 0.00 0.00 0.00 96 1017.5
20200218174617 62 0 0.0 0.0 0.00 0.00 0.00 96 1017.6
20200218174117 62 0 0.0 0.0 0.00 0.00 0.00 96 1017.7
20200218173617 62 0 0.0 0.0 0.00 0.00 0.00 96 1017.8
20200218173117 62 0 0.0 0.0 0.00 0.00 0.00 96 1017.9
20200218172618 62 0 0.0 0.0 0.00 0.00 0.00 96 1018.0
20200218172118 61 0 0.0 0.0 0.00 0.00 0.00 96 1018.0
20200218171617 61 0 0.0 0.0 0.00 0.00 0.00 96 1018.2
20200218171117 61 0 0.0 0.0 0.00 0.00 0.00 96 1018.2
20200218170617 61 0 0.0 0.0 0.00 0.00 0.00 96 1018.2
20200218170117 61 0 0.0 0.0 0.00 0.00 0.00 96 1018.4
20200218165617 61 0 0.0 0.0 0.00 0.00 0.00 96 1018.4
20200218165117 61 0 0.0 0.0 0.00 0.00 0.00 96 1018.4
20200218164617 61 0 0.0 0.0 0.00 0.00 0.00 96 1018.5
20200218164117 61 0 0.0 0.0 0.00 0.00 0.00 96 1018.6
20200218163617 60 0 0.0 0.0 0.00 0.00 0.00 96 1018.7
20200218163117 60 0 0.0 0.0 0.00 0.00 0.00 96 1018.8
20200218162617 60 0 0.0 0.0 0.00 0.00 0.00 96 1018.9
20200218161616 60 0 0.0 0.0 0.00 0.00 0.00 96 1019.1
20200218160617 60 0 0.0 0.0 0.00 0.00 0.00 96 1019.1
20200218160117 60 0 0.0 0.0 0.00 0.00 0.00 96 1019.2
20200218155617 60 0 0.0 0.0 0.00 0.00 0.00 96 1019.1
20200218155117 60 0 0.0 0.0 0.00 0.00 0.00 96 1019.1
20200218154617 60 0 0.0 0.0 0.00 0.00 0.00 96 1019.1
20200218154117 60 0 0.0 0.0 0.00 0.00 0.00 96 1019.2
20200218153617 60 0 0.0 0.0 0.00 0.00 0.00 96 1019.3
20200218153117 60 0 0.0 0.0 0.00 0.00 0.00 96 1019.3
20200218152618 60 0 0.0 0.0 0.00 0.00 0.00 96 1019.3
20200218151117 60 0 0.0 0.0 0.00 0.00 0.00 96 1019.4
20200218150617 60 0 0.0 0.0 0.00 0.00 0.00 96 1019.4
20200218150117 60 0 0.0 0.0 0.00 0.00 0.00 96 1019.4
20200218145617 60 0 0.0 0.0 0.00 0.00 0.00 96 1019.4
20200218145117 60 0 0.0 0.0 0.00 0.00 0.00 96 1019.4
20200218144117 59 0 0.0 0.0 0.00 0.00 0.00 96 1019.5
20200218143117 59 0 0.0 0.0 0.00 0.00 0.00 96 1019.3
20200218142617 59 0 0.0 0.0 0.00 0.00 0.00 96 1019.3
20200218142117 59 0 0.0 0.0 0.00 0.00 0.00 96 1019.4
20200218141617 59 0 0.0 0.0 0.00 0.00 0.00 96 1019.3
20200218140617 59 0 0.0 0.0 0.00 0.00 0.00 96 1019.1
20200218135617 59 0 0.0 0.0 0.00 0.00 0.00 96 1019.2
20200218135117 59 0 0.0 0.0 0.00 0.00 0.00 96 1019.1
20200218134617 59 0 0.0 0.0 0.00 0.00 0.00 96 1019.1
20200218134117 59 0 0.0 0.0 0.00 0.00 0.00 96 1019.0
20200218133617 58 0 0.0 0.0 0.00 0.00 0.00 96 1018.9
20200218133117 58 0 0.0 0.0 0.00 0.00 0.00 96 1018.8
20200218132617 58 0 0.0 0.0 0.00 0.00 0.00 96 1018.8
20200218132117 58 0 0.0 0.0 0.00 0.00 0.00 96 1018.8
20200218131617 58 0 0.0 0.0 0.00 0.00 0.00 96 1018.7
20200218131117 58 0 0.0 0.0 0.00 0.00 0.00 96 1018.8
20200218130617 58 0 0.0 0.0 0.00 0.00 0.00 96 1018.7
20200218130117 58 0 0.0 0.0 0.00 0.00 0.00 96 1018.6
20200218124617 58 0 0.0 0.0 0.00 0.00 0.00 96 1018.6
20200218124117 58 0 0.0 0.0 0.00 0.00 0.00 96 1018.5
20200218123118 58 0 0.0 0.0 0.00 0.00 0.00 96 1018.4
20200218122617 58 202 0.0 0.9 0.00 0.00 0.00 96 1018.4
20200218121617 58 0 0.0 0.0 0.00 0.00 0.00 96 1018.4
20200218121117 58 0 0.0 0.0 0.00 0.00 0.00 96 1018.3
20200218120617 58 0 0.0 0.0 0.00 0.00 0.00 96 1018.0
20200218120117 58 0 0.0 0.0 0.00 0.00 0.00 96 1017.9
20200218115617 58 0 0.0 0.0 0.00 0.00 0.00 96 1017.9
20200218115117 58 0 0.0 0.0 0.00 0.00 0.00 96 1017.9
20200218114617 58 0 0.0 0.0 0.00 0.00 0.00 96 1017.8
20200218114117 58 0 0.0 0.0 0.00 0.00 0.00 96 1017.8
20200218113617 58 47 0.0 1.7 0.00 0.00 0.00 96 1017.7
20200218113117 58 37 0.0 1.7 0.00 0.00 0.00 96 1017.8
20200218112617 58 0 0.0 0.0 0.00 0.00 0.00 96 1017.8
20200218112117 58 0 0.0 0.0 0.00 0.00 0.00 96 1017.8
20200218111617 59 0 0.0 0.0 0.00 0.00 0.00 96 1017.8
20200218111117 58 0 0.0 0.0 0.00 0.00 0.00 96 1017.9
20200218110617 58 0 0.0 0.0 0.00 0.00 0.00 96 1017.9
20200218110117 58 0 0.0 0.0 0.00 0.00 0.00 96 1017.8
20200218105616 58 0 0.0 0.0 0.00 0.00 0.00 96 1017.7
20200218105117 58 0 0.0 0.0 0.00 0.00 0.00 96 1017.7
20200218104617 58 45 0.0 0.9 0.00 0.00 0.00 96 1017.7
20200218104117 58 353 0.0 0.9 0.00 0.00 0.00 96 1017.5
20200218103617 59 353 0.0 0.9 0.00 0.00 0.00 96 1017.4
20200218103117 58 336 0.0 3.5 0.00 0.00 0.00 96 1017.5
20200218102617 58 72 3.5 1.7 0.00 0.00 0.00 96 1017.5
20200218102117 58 162 0.0 1.7 0.00 0.00 0.00 96 1017.6
20200218101616 58 328 0.9 3.5 0.00 0.00 0.00 96 1017.7
20200218101117 58 0 1.7 0.0 0.00 0.00 0.00 96 1017.5
20200218100617 58 1 0.0 2.6 0.00 0.00 0.00 96 1017.5
20200218095617 58 0 0.0 0.0 0.00 0.00 0.00 96 1017.5
20200218095117 58 0 0.0 0.0 0.00 0.00 0.00 96 1017.5
20200218094118 58 0 0.0 0.0 0.00 0.00 0.00 96 1017.3
20200218093617 58 79 0.0 1.7 0.00 0.00 0.00 96 1017.3
20200218093117 58 335 0.0 2.6 0.00 0.00 0.00 96 1017.2
20200218091617 58 49 0.0 0.9 0.00 0.00 0.00 96 1017.2
20200218091117 58 0 0.0 0.0 0.00 0.00 0.00 96 1017.2
20200218090617 58 0 0.0 0.0 0.00 0.00 0.00 96 1017.3
20200218090117 57 0 0.0 0.0 0.00 0.00 0.00 96 1017.1
20200218085617 58 0 0.0 0.0 0.00 0.00 0.00 96 1017.2
20200218085117 58 0 0.0 0.0 0.00 0.00 0.00 96 1017.1
20200218084617 58 0 0.0 0.0 0.00 0.00 0.00 96 1017.2
20200218084117 58 0 0.0 0.0 0.00 0.00 0.00 96 1017.5
20200218083617 58 66 0.0 1.7 0.00 0.00 0.00 96 1017.5
20200218083118 58 336 0.0 3.5 0.00 0.00 0.00 96 1017.7
20200218082117 57 96 0.0 3.5 0.00 0.00 0.00 96 1017.5
20200218081618 58 0 0.0 0.0 0.00 0.00 0.00 95 1017.8
20200218081117 58 239 0.0 3.5 0.00 0.00 0.00 95 1017.8
20200218080616 57 189 0.9 2.6 0.00 0.00 0.00 95 1018.3
20200218080117 57 185 1.7 3.5 0.00 0.00 0.00 95 1018.2
20200218075617 58 251 1.7 2.6 0.00 0.00 0.00 95 1018.0
20200218075117 58 343 0.0 1.7 0.00 0.00 0.00 95 1018.3
20200218074617 58 100 1.7 1.7 0.00 0.00 0.00 95 1017.9
20200218074117 58 119 0.0 0.9 0.00 0.00 0.00 95 1018.2
20200218073117 58 0 0.0 0.0 0.00 0.00 0.00 95 1017.9
20200218072617 58 0 0.0 0.0 0.00 0.00 0.00 95 1018.3
20200218072117 58 0 0.0 0.0 0.00 0.00 0.00 95 1018.6
20200218071117 58 34 0.0 0.9 0.00 0.00 0.00 94 1018.2
20200218070617 58 78 0.0 5.2 0.00 0.00 0.00 94 1018.4
20200218070117 58 73 3.5 4.3 0.00 0.00 0.00 94 1017.6
20200218065617 58 251 0.0 0.9 0.00 0.00 0.00 93 1018.0
20200218065117 58 257 0.0 1.7 0.00 0.00 0.00 93 1018.2
20200218064617 58 282 0.9 2.6 0.00 0.00 0.00 92 1018.3
20200218064118 59 138 0.0 1.7 0.00 0.00 0.00 92 1018.3
20200218063617 58 185 0.0 1.7 0.00 0.00 0.00 92 1018.2
20200218063117 59 97 0.9 1.7 0.00 0.00 0.00 91 1018.0
20200218062617 59 61 0.9 1.7 0.00 0.00 0.00 91 1017.8
20200218062118 59 90 0.9 2.6 0.00 0.00 0.00 91 1017.6
20200218061617 59 0 2.6 0.0 0.00 0.00 0.00 90 1017.5
20200218061116 59 256 0.0 2.6 0.00 0.00 0.00 90 1017.7
20200218060617 59 236 0.0 2.6 0.00 0.00 0.00 90 1017.9
20200218060117 59 66 0.9 5.2 0.00 0.00 0.00 91 1017.9
20200218055617 59 253 0.9 5.2 0.00 0.00 0.00 91 1017.8
20200218055117 59 55 0.9 3.5 0.00 0.00 0.00 91 1017.9
20200218054617 58 155 0.9 3.5 0.00 0.00 0.00 90 1017.9
20200218054117 59 95 2.6 5.2 0.00 0.00 0.00 90 1017.9
20200218053617 59 241 1.7 5.2 0.00 0.00 0.00 90 1018.0
20200218053117 59 268 0.9 5.2 0.00 0.00 0.00 90 1017.9
20200218052617 58 97 0.9 4.3 0.00 0.00 0.00 90 1017.8
20200218052116 58 144 0.9 4.3 0.00 0.00 0.00 90 1017.7
20200218051617 58 75 1.7 4.3 0.00 0.00 0.00 90 1017.8
20200218051117 59 138 0.9 6.1 0.00 0.00 0.00 90 1017.8
20200218050617 59 95 5.2 4.3 0.00 0.00 0.00 90 1017.7
20200218050117 59 73 0.0 3.5 0.00 0.00 0.00 90 1017.8
20200218045617 59 76 3.5 2.6 0.00 0.00 0.00 90 1017.6
20200218045117 59 99 0.9 3.5 0.00 0.00 0.00 90 1017.9
20200218044117 59 34 1.7 2.6 0.00 0.00 0.00 90 1018.2
20200218043617 59 79 1.7 5.2 0.00 0.00 0.00 90 1018.3
20200218043117 59 131 4.3 5.2 0.00 0.00 0.00 90 1018.2
20200218042617 59 119 1.7 4.3 0.00 0.00 0.00 90 1018.3
20200218042117 59 268 0.9 5.2 0.00 0.00 0.00 90 1018.3
20200218041617 59 236 0.9 3.5 0.00 0.00 0.00 90 1018.3
20200218041117 59 186 0.0 5.2 0.00 0.00 0.00 90 1018.4
20200218040617 59 263 0.0 3.5 0.00 0.00 0.00 90 1018.5
20200218040117 59 265 0.9 6.1 0.00 0.00 0.00 90 1018.3
20200218035617 59 172 3.5 5.2 0.00 0.00 0.00 90 1018.3
20200218035117 59 154 0.9 6.1 0.00 0.00 0.00 90 1018.0
20200218034617 59 136 2.6 5.2 0.00 0.00 0.00 90 1018.0
20200218034117 59 251 2.6 4.3 0.00 0.00 0.00 90 1018.0
20200218033617 59 229 1.7 4.3 0.00 0.00 0.00 90 1018.2
20200218033117 59 271 3.5 3.5 0.00 0.00 0.00 90 1018.2
20200218032617 59 360 0.9 5.2 0.00 0.00 0.00 90 1018.2
20200218032117 59 240 0.9 2.6 0.00 0.00 0.00 90 1018.0
20200218031617 59 250 0.0 2.6 0.00 0.00 0.00 90 1018.2
20200218030117 59 179 0.9 3.5 0.00 0.00 0.00 90 1018.2
20200218025617 59 155 0.0 4.3 0.00 0.00 0.00 90 1018.2
20200218025116 59 160 1.7 7.0 0.00 0.00 0.00 90 1018.2
20200218024617 59 267 0.9 6.1 0.00 0.00 0.00 90 1018.2
20200218024117 59 21 0.0 2.6 0.00 0.00 0.00 90 1018.2
20200218023617 59 184 0.0 2.6 0.00 0.00 0.00 90 1018.0
20200218023117 59 234 0.9 5.2 0.00 0.00 0.00 90 1018.0
20200218022617 59 45 0.9 4.3 0.00 0.00 0.00 90 1018.0
20200218022117 59 116 0.0 4.3 0.00 0.00 0.00 90 1017.9
20200218021617 59 102 0.0 7.8 0.00 0.00 0.00 90 1017.9
20200218020617 59 112 0.0 5.2 0.00 0.00 0.00 90 1017.8
20200218020117 59 349 1.7 2.6 0.00 0.00 0.00 90 1017.8
20200218015616 59 188 0.0 4.3 0.00 0.00 0.00 90 1017.8
20200218015117 59 343 1.7 2.6 0.00 0.00 0.00 90 1017.7
20200218014617 59 32 0.0 2.6 0.00 0.00 0.00 90 1017.6
20200218014117 59 251 1.7 2.6 0.00 0.00 0.00 90 1017.4
20200218013617 59 73 0.0 6.1 0.00 0.00 0.00 90 1017.5
20200218013117 59 44 0.0 4.3 0.00 0.00 0.00 90 1017.4
20200218012616 59 152 2.6 7.8 0.00 0.00 0.00 90 1017.5
20200218012127 59 73 0.0 2.6 0.00 0.00 0.00 89 1017.5
20200218011117 59 102 0.0 4.3 0.00 0.00 0.00 89 1017.5
20200218010617 59 51 0.0 3.5 0.00 0.00 0.00 89 1017.6
20200218010117 59 344 2.6 4.3 0.00 0.00 0.00 89 1017.6
20200218005117 59 357 0.9 3.5 0.00 0.00 0.00 88 1017.5
20200218004617 60 275 0.9 2.6 0.00 0.00 0.00 88 1017.5
20200218004117 60 185 1.7 3.5 0.00 0.00 0.00 88 1017.7
20200218003617 60 305 0.0 3.5 0.00 0.00 0.00 87 1017.6
20200218003117 60 234 2.6 5.2 0.00 0.00 0.00 87 1017.6
20200218002616 60 147 2.6 6.1 0.00 0.00 0.00 87 1017.6
20200218002117 60 236 0.9 3.5 0.00 0.00 0.00 87 1017.5
20200218001617 60 226 0.0 3.5 0.00 0.00 0.00 87 1017.5
20200218001117 60 227 2.6 6.1 0.00 0.00 0.00 86 1017.5
20200218000617 60 230 0.0 7.0 0.00 0.00 0.00 86 1017.4
20200218000117 60 254 3.5 4.3 0.00 0.00 0.00 86 1017.3
20200217235617 60 299 1.7 2.6 0.00 0.00 0.00 86 1017.1
20200217235117 60 224 2.6 4.3 0.00 0.00 0.00 85 1017.0
20200217234617 61 349 1.7 2.6 0.00 0.00 0.00 85 1016.9
20200217234117 61 40 0.9 4.3 0.00 0.00 0.00 84 1016.8
20200217233617 61 117 0.0 3.5 0.00 0.00 0.00 84 1016.8
20200217232622 61 217 0.9 5.2 0.00 0.00 0.00 83 1016.9
20200217232117 61 241 0.9 3.5 0.00 0.00 0.00 83 1016.9
20200217231117 62 181 1.7 7.8 0.00 0.00 0.00 82 1016.8
20200217230617 62 246 3.5 4.3 0.00 0.00 0.00 82 1016.8
20200217230117 62 285 1.7 3.5 0.00 0.00 0.00 82 1016.7